Regional Weather Roundup
Issued by NWS Grand Forks, ND

Home | Current Version | Previous Version | Text Only | Print | Product List | Glossary Off
Versions: 1 2 3 4 5 6 7 8 9 10 11 12 13 14 15 16 17 18 19 20 21 22 23 24 25 26 27 28 29 30 31 32 33 34 35 36 37 38 39 40 41 42 43 44 45 46 47 48 49 50

000
ASUS43 KFGF 010810
RWRFGF
PRAIRIE TO PINES  WEATHER ROUNDUP
NATIONAL WEATHER SERVICE EASTERN NORTH DAKOTA/GRAND FORKS ND
200 AM CST SUN FEB 01 2015

 **SATELLITE DATA USED TO AUGMENT SKY COVER AT AUTOMATED STATIONS**
 *****  WEATHER ACROSS EASTERN NORTH DAKOTA  *****

CITY           SKY/WX    TMP DP  RH WIND       PRES   REMARKS
GRAND FORKS    PTCLDY   -10 -18  67 N18       30.56R WCI -34
GRAND FRKS AFB PTCLDY   -11 -19  65 N15       30.56R WCI -33
GRAND FRKS NWS   N/A    -11 N/A N/A N21         N/A  WCI -37
DEVILS LAKE    MOCLDY    -9 -22  54 NE13      30.49R WCI -30
FARGO          MOCLDY    -2 -11  65 N20       30.45R WCI -24
WAHPETON ARPT  PTSUNNY    3  -6  66 N21       30.37S WCI -18
$$

 ***** WEATHER ACROSS CENTRAL AND WESTERN NORTH DAKOTA  *****

CITY           SKY/WX    TMP DP  RH WIND       PRES   REMARKS
BISMARCK       FLURRIES  -5 -13  68 N10       30.46R WCI -23
MINOT          CLOUDY    -8 -18  61 N14       30.51R WCI -29
JAMESTOWN      CLOUDY    -5 -13  68 N17       30.42R WCI -27
MINOT AFB      PTCLDY    -8 -17  67 N13       30.52R WCI -29
GARRISON         N/A     -7 -14  71 N8        30.46R WCI -23
WILLISTON      CLOUDY    -4 -12  68 NE7       30.50R WCI -18
DICKINSON      LGT SNOW  -3  -8  79 N10       30.35R WCI -20
HETTINGER      LGT SNOW  -2  -8  76 N13       30.33R WCI -20
$$

 *****  OTHER AIRPORT OBSERVATIONS IN OUR AREA  *****

CITY           SKY/WX    TMP DP  RH WIND       PRES   REMARKS
WALHALLA         N/A    -11 -20  64 N10       30.62R WCI -30
GRAFTON AIRPOR NOT AVBL
VALLEY CITY AR CLOUDY    -4 -13  65 N18G24    30.42S WCI -26
CANDO          CLOUDY   -11 -18  70 N14       30.53S WCI -33
CAVALIER APRT  FAIR     -11 -18  70 N14       30.61R WCI -33
GWINNER        CLOUDY     1  -9  60 N26       30.39S WCI -23
SHEYENNE NWR     N/A     -4 -14  61 N15       29.95S WCI -25
ROLLA          CLOUDY   -13 -22  64 N12       30.50R WCI -33
 ***** THE ABOVE OBSERVATIONS ARE NON NWS ARE NOT QUALITY
       CONTROLLED AND MAY MIS-REPORT RAIN FOR SNOW...
$$

  *****  WEATHER ACROSS NORTHERN MINNESOTA  *****

CITY           SKY/WX    TMP DP  RH WIND       PRES   REMARKS
FLAG ISLAND    MOCLDY   -17 -20  83 NW10      30.52R WCI -37
WARROAD        MOCLDY   -17 -22  76 NW6       30.52S WCI -31
ROSEAU         MOCLDY   -15 -20  76 N7        30.54R WCI -31
HALLOCK        CLEAR    -13 -20  70 N10       30.59R WCI -32
THF RVR FALLS  PTCLDY    -8 -15  71 N13       30.49R WCI -28
BAUDETTE       MOCLDY   -14 -20  74 NW6       30.49R WCI -28
WASKISH        MOCLDY   -13 -17  84 CALM      30.45S
CROOKSTON      PTCLDY    -8 -15  71 N13       30.53S WCI -28
STEPHEN NDAWN    N/A    -13 -20  70 N13         N/A  WCI -34
GREENBUSH NDAW   N/A    -15 -20  76 N12         N/A  WCI -36
$$
  *****  WEATHER ACROSS CENTRAL AND WEST MINNESOTA  *****

CITY           SKY/WX    TMP DP  RH WIND       PRES   REMARKS
FOSSTON        PTCLDY    -8 -15  71 NE10      30.43S WCI -26
BEMIDJI        MOCLDY    -8 -14  73 NE7       30.40R WCI -22
PARK RAPIDS    PTCLDY    -1  -9  68 NE12G17   30.34R WCI -18
ELBOW LAKE     CLOUDY     7  -2  67 NE14      30.28F WCI -10
WADENA         MOCLDY     1  -6  71 NE9G16    30.31R WCI -14
DETROIT LAKES  MOCLDY     1  -8  66 NE10      30.36S WCI -14
MOORHEAD       MOCLDY     0  -9  65 N18       30.44R WCI -22
FERGUS FALLS   MOCLDY     3  -8  60 NE17      30.36F WCI -17
MORRIS MN      CLOUDY    12   1  62 N15       30.26S WCI  -4
STAPLES        PTCLDY     3  -8  60 NE8       30.31S WCI -10
$$
  *****  WEATHER ELSEWHERE ACROSS MINNESOTA  *****

CITY           SKY/WX    TMP DP  RH WIND       PRES   REMARKS
DULUTH         MOCLDY     0 -10  63 N10       30.30S WCI -16
INTRNTL FALLS  PTCLDY   -13 -19  75 N3        30.46S
ELY            PTCLDY   -11 -17  77 CALM      30.39R
CLOQUET        CLOUDY     1  -9  60 N8        30.31F WCI -12
WHEATON        MOCLDY     3  -2  78 N20       30.35S WCI -18
BRAINERD       MOCLDY     4  -6  63 NE14      30.32S WCI -14
HIBBING        CLOUDY    -4 -15  59 N6        30.37R WCI -16
ALEXANDRIA     CLOUDY    10  -2  58 NE14      30.25S WCI  -6
SAINT CLOUD    CLOUDY    14   2  58 NE8G22    30.25S WCI   3
MINNEAPOLIS    CLOUDY    19   7  59 NE15G24   30.19F WCI   5
$$

  *****  WEATHER ACROSS SOUTH DAKOTA  *****

CITY           SKY/WX    TMP DP  RH WIND       PRES   REMARKS
SIOUX FALLS    LGT SNOW  20  16  84 NE21      30.04F FOG     WCI   4
BROOKINGS      NOT AVBL
WATERTOWN      LGT SNOW   4  -1  80 N22G31    30.18S WCI -18
HURON          LGT SNOW   6   1  80 N23G30    30.23S WCI -15
SISSETON         N/A      1  -6  72 N22       30.33S WCI -21
ABERDEEN       LGT SNOW   1  -6  72 N18       30.34F WCI -20
MITCHELL       LGT SNOW  13   9  84 N24G31    30.17R FOG     WCI  -7
PIERRE         LGT SNOW   6   1  80 N18       30.27R VSB 1   WCI -13
MOBRIDGE       LGT SNOW   2  -5  72 N15       30.32R WCI -17
RAPID CITY     LGT SNOW   7   4  87 N17       30.19R FOG     WCI -12
$$

  *****  SOME WEATHER IN NEARBY STATES *****

CITY           SKY/WX    TMP DP  RH WIND       PRES   REMARKS
GLASGOW MT     LGT SNOW   2  -3  80 NE5       30.47R WCI  -8
GREAT FALLS MT CLOUDY     0  -3  87 E3        30.34F
CHEYENNE WY    LGT SNOW  21  16  81 N21G32    29.98R WCI   5
SCOTTSBLUFF NE CLOUDY    23  20  88 N9        30.07R WCI  13
OMAHA NE       LGT SNOW  33  32  96 NE3       29.83F VSB 3/4
DES MOINES IA  LGT SNOW  33  31  92 E8        29.87F FOG
DAVENPORT IA   LGT SNOW  32  30  92 E10       29.97F VSB 3/4 WCI  24
CHICAGO IL     LGT SNOW  31  30  96 E6        30.10F VSB 3/4
EAU CLAIRE WI  FLURRIES  17   7  64 NE20      30.21R WCI   1
LA CROSSE WI   LGT SNOW  27  23  85 NE8       30.13F FOG     WCI  19
$$

  *****  SOME NATIONAL WEATHER *****

CITY           SKY/WX    TMP DP  RH WIND       PRES   REMARKS
LA GUARDIA NY  PTCLDY    23   8  52 W6        30.20S WCI  16
RALEIGH NC     CLOUDY    36  16  44 CALM      30.27S
ATLANTA GA     CLOUDY    45  20  36 E3        30.23F
NEW ORLEANS LA CLOUDY    60  52  74 SE8       30.07F
OKLAHOMA CITY  LGT RAIN  46  43  89 SW6       29.81F FOG
ALBUQUERQUE NM CLOUDY    39  32  76 NW9       29.99R
SALT LAKE CITY CLEAR     31  28  89 S7        30.18R WCI  24
LOS ANGELES CA CLEAR     57  54  89 CALM      30.00R
BOISE ID       PTCLDY    32  25  75 S5        30.20R
SEATTLE WA     CLOUDY    43  40  89 N8        30.10F
$$

*** WEATHER ACROSS MANITOBA...SASKATCHEWAN AND ONTARIO ***
                ***ONTARIO***

CITY           SKY/WX    TMP DP  RH WIND       PRES   REMARKS
GERALDTON      CLEAR    -31 -36  75 W3        30.39F
THUNDER BAY    CLEAR    -15 -20  76 W5        30.51R WCI -27
SIOUX LOOKOUT  CLEAR    -24 -29  76 N6        30.45S WCI -40
TORONTO        FLURRIES  27  21  80 N13       30.16R WCI  16
BIG TROUT LK   CLEAR    -24 -31  69 W9        30.37S WCI -45
PICKLE LAKE    NOT AVBL
DRYDEN         CLEAR    -18 -24  76 N3        30.45S
KENORA         PTCLDY   -18 -24  76 N6        30.48R WCI -33
$$
                *** MANITOBA***

CITY           SKY/WX    TMP DP  RH WIND       PRES   REMARKS
BRANDON        MOCLDY   -15 -22  70 SW2       30.58S
DAUPHIN        CLEAR    -20 -27  69 W9        30.60F WCI -40
ISLAND LAKE    CLEAR    -22 -29  69 W8        30.47S WCI -41
PILOT MOUND      N/A    -18 -26  69 N7          N/A  WCI -35
THE PAS        CLEAR    -22 -27  76 W5        30.56F WCI -36
THOMPSON       CLEAR    -24 -31  69 SW3       30.42F
WINNIPEG       MOCLDY   -17 -24  70 NW7       30.64S WCI -33
LYNN LAKE      CLEAR    -24 -31  69 W9        30.38F WCI -45
CHURCHILL      CRYSTALS -22 -29  69 NW14      30.30F WCI -47
GILLAM         CLEAR    -22 -31  63 W12G20    30.37F WCI -45
$$
                ***SASKATCHEWAN***

CITY           SKY/WX    TMP DP  RH WIND       PRES   REMARKS
ESTEVAN        CLOUDY    -8 -17  65 SE3       30.51S
KINDERSLEY     MOCLDY   -15 -18  84 S8        30.42F WCI -32
LLOYDMINSTER   CLOUDY     0  -6  78 SW9       30.37F WCI -16
PRINCE ALBERT  CLEAR    -26 -31  75 VRB2      30.52F
REGINA         MOCLDY    -9 -13  84 NW3       30.52S
YORKTON        PTCLDY   -18 -26  69 NW3       30.53F
N. BATTLEFORD  CLEAR     -4  -9  77 SW9       30.49F WCI -20
LA RONGE       CLEAR    -31 -35  82 CALM      30.47F
SASKATOON      PTCLDY    -9 -15  77 SW7       30.54F WCI -24
SWIFT CURRENT  CLEAR     -8 -13  77 S6        30.38F WCI -21
$$
NOTE: THESE ARE AUTOMATED STATIONS WITH LIMITED QUALITY CONTROL
      "FAIR" INDICATES FEW OR NO CLOUDS BELOW 12,000 FEET WITH NO
      SIGNIFICANT WEATHER AND/OR OBSTRUCTIONS TO VISIBILITY.
      SKY/WX - SKY CONDITION AND SIGNIFICANT WEATHER.
      TMP - AIR TEMPERATURE.    DP   - DEWPOINT TEMPERATURE.
      RH  - RELATIVE HUMIDITY.  PRES - PRESSURE.
      HX  - HEAT INDEX.         WCI  - WIND CHILL INDEX.
$


USA.gov is the U.S. government's official web portal to all federal, state and local government web resources and services.